When you browse on this site, cookies collect data to enhance your experience and personalize the content and advertising you see.
Visit our Privacy Policy to learn more. By continuing to use the site, you agree to this use of cookies and data.
  • In Sweden
  • List of Countries
  • For 7 days
  • Water Temperature
  • Weather Map
  • Weather Widgets
  • user-avatar
    Login

    Hourly Weather Recife

    Today, 16 November, Saturday

    Time Temperature Precipitation Wind Pressure Humidity
    00:00 +27°C° 0 mm 4 mps 756 mmHg 76%
    01:00 +27°C° 0 mm 4 mps 755 mmHg 74%
    02:00 +27°C° 0 mm 4 mps 755 mmHg 73%
    03:00 +27°C° 0 mm 3 mps 755 mmHg 72%
    04:00 +27°C° 0 mm 3 mps 755 mmHg 72%
    05:00 +27°C° 0 mm 3 mps 755 mmHg 70%
    06:00 +28°C° 0 mm 3 mps 755 mmHg 69%
    07:00 +28°C° 0 mm 4 mps 756 mmHg 67%
    08:00 +28°C° 0 mm 4 mps 756 mmHg 65%
    09:00 +29°C° 0 mm 4 mps 756 mmHg 63%
    10:00 +30°C° 0 mm 4 mps 756 mmHg 61%
    11:00 +32°C° 0 mm 4 mps 756 mmHg 58%
    12:00 +32°C° 0 mm 4 mps 755 mmHg 56%
    13:00 +33°C° 0 mm 4 mps 755 mmHg 53%
    14:00 +33°C° 0 mm 4 mps 755 mmHg 55%
    15:00 +32°C° 0 mm 4 mps 754 mmHg 58%
    16:00 +32°C° 0 mm 5 mps 754 mmHg 60%
    17:00 +30°C° 0 mm 5 mps 754 mmHg 64%
    18:00 +29°C° 0 mm 5 mps 754 mmHg 69%
    19:00 +28°C° 0 mm 5 mps 755 mmHg 74%
    20:00 +27°C° 0 mm 5 mps 755 mmHg 76%
    21:00 +27°C° 0 mm 5 mps 755 mmHg 77%
    22:00 +27°C° 0 mm 4 mps 756 mmHg 79%
    23:00 +27°C° 0 mm 4 mps 755 mmHg 79%

    Tomorrow, 17 November, Sunday

    Time Temperature Precipitation Wind Pressure Humidity
    00:00 +27°C° 0 mm 4 mps 755 mmHg 78%
    01:00 +27°C° 0 mm 4 mps 755 mmHg 78%
    02:00 +27°C° 0 mm 3 mps 755 mmHg 76%
    03:00 +27°C° 0 mm 3 mps 755 mmHg 74%
    04:00 +27°C° 0 mm 3 mps 755 mmHg 73%
    05:00 +27°C° 0 mm 3 mps 755 mmHg 73%
    06:00 +27°C° 0 mm 4 mps 756 mmHg 74%
    07:00 +27°C° 0 mm 4 mps 756 mmHg 74%
    08:00 +29°C° 0 mm 4 mps 756 mmHg 68%
    09:00 +30°C° 0 mm 4 mps 757 mmHg 63%
    10:00 +32°C° 0 mm 4 mps 757 mmHg 57%
    11:00 +32°C° 0 mm 5 mps 756 mmHg 56%
    12:00 +33°C° 0 mm 5 mps 756 mmHg 55%
    13:00 +33°C° 0 mm 5 mps 756 mmHg 54%
    14:00 +32°C° 0 mm 5 mps 755 mmHg 55%
    15:00 +32°C° 0 mm 5 mps 755 mmHg 57%
    16:00 +32°C° 0 mm 4 mps 755 mmHg 58%
    17:00 +29°C° 0 mm 4 mps 755 mmHg 64%
    18:00 +28°C° 0 mm 4 mps 755 mmHg 70%
    19:00 +27°C° 0 mm 4 mps 755 mmHg 75%
    20:00 +27°C° 0 mm 4 mps 756 mmHg 77%
    21:00 +27°C° 0 mm 4 mps 756 mmHg 78%
    22:00 +26°C° 0 mm 4 mps 757 mmHg 80%
    23:00 +27°C° 0 mm 4 mps 757 mmHg 77%

    Day after tomorrow, 18 November, Monday

    Time Temperature Precipitation Wind Pressure Humidity
    00:00 +27°C° 0 mm 4 mps 756 mmHg 74%
    01:00 +28°C° 0 mm 4 mps 756 mmHg 71%
    02:00 +27°C° 0 mm 4 mps 756 mmHg 71%
    03:00 +27°C° 0 mm 4 mps 756 mmHg 72%
    04:00 +27°C° 0 mm 4 mps 756 mmHg 72%
    05:00 +27°C° 0.1 mm 4 mps 756 mmHg 71%
    06:00 +28°C° 0.1 mm 4 mps 756 mmHg 70%
    07:00 +28°C° 0.1 mm 4 mps 757 mmHg 69%
    08:00 +28°C° 0 mm 4 mps 757 mmHg 66%
    09:00 +29°C° 0 mm 4 mps 757 mmHg 63%
    10:00 +30°C° 0 mm 4 mps 758 mmHg 60%
    11:00 +32°C° 0 mm 4 mps 757 mmHg 57%
    12:00 +33°C° 0 mm 4 mps 757 mmHg 54%
    13:00 +33°C° 0 mm 4 mps 757 mmHg 50%
    14:00 +33°C° 0 mm 4 mps 756 mmHg 53%
    15:00 +32°C° 0 mm 4 mps 756 mmHg 56%
    16:00 +32°C° 0 mm 4 mps 755 mmHg 59%
    17:00 +30°C° 0 mm 4 mps 756 mmHg 64%
    18:00 +29°C° 0 mm 4 mps 756 mmHg 69%
    19:00 +28°C° 0 mm 4 mps 757 mmHg 74%
    20:00 +28°C° 0 mm 4 mps 757 mmHg 75%
    21:00 +27°C° 0 mm 4 mps 757 mmHg 77%
    22:00 +27°C° 0 mm 5 mps 758 mmHg 79%
    23:00 +27°C° 0 mm 5 mps 757 mmHg 80%

    19 November, Tuesday

    Time Temperature Precipitation Wind Pressure Humidity
    00:00 +27°C° 0 mm 5 mps 757 mmHg 81%
    01:00 +27°C° 0 mm 5 mps 757 mmHg 82%
    02:00 +27°C° 0.1 mm 4 mps 757 mmHg 82%
    03:00 +27°C° 0.1 mm 4 mps 757 mmHg 81%
    04:00 +27°C° 0.1 mm 4 mps 756 mmHg 80%
    05:00 +27°C° 0.2 mm 4 mps 757 mmHg 79%
    06:00 +27°C° 0.2 mm 5 mps 757 mmHg 78%
    07:00 +28°C° 0.2 mm 5 mps 757 mmHg 77%
    08:00 +29°C° 0.1 mm 5 mps 758 mmHg 72%
    09:00 +29°C° 0.1 mm 5 mps 758 mmHg 67%
    10:00 +30°C° 0.1 mm 5 mps 758 mmHg 62%
    11:00 +32°C° 0 mm 5 mps 758 mmHg 59%
    12:00 +32°C° 0 mm 5 mps 757 mmHg 57%
    13:00 +33°C° 0 mm 6 mps 757 mmHg 54%
    14:00 +33°C° 0 mm 5 mps 757 mmHg 56%
    15:00 +32°C° 0 mm 5 mps 756 mmHg 59%
    16:00 +32°C° 0 mm 5 mps 756 mmHg 61%
    17:00 +29°C° 0 mm 5 mps 756 mmHg 66%
    18:00 +28°C° 0 mm 4 mps 756 mmHg 71%
    19:00 +27°C° 0 mm 4 mps 757 mmHg 76%
    20:00 +27°C° 0 mm 4 mps 757 mmHg 78%
    21:00 +27°C° 0 mm 4 mps 757 mmHg 79%
    22:00 +27°C° 0 mm 4 mps 757 mmHg 81%
    23:00 +27°C° 0.1 mm 4 mps 757 mmHg 81%

    20 November, Wednesday

    Time Temperature Precipitation Wind Pressure Humidity
    00:00 +27°C° 0.1 mm 4 mps 757 mmHg 81%
    01:00 +27°C° 0.1 mm 4 mps 757 mmHg 81%
    02:00 +27°C° 0.1 mm 4 mps 757 mmHg 81%
    03:00 +26°C° 0.1 mm 4 mps 757 mmHg 82%
    04:00 +26°C° 0.1 mm 4 mps 756 mmHg 83%
    05:00 +26°C° 0 mm 4 mps 757 mmHg 81%
    06:00 +27°C° 0 mm 4 mps 757 mmHg 78%
    07:00 +27°C° 0 mm 4 mps 758 mmHg 75%
    08:00 +28°C° 0 mm 4 mps 758 mmHg 70%
    09:00 +29°C° 0 mm 4 mps 758 mmHg 66%
    10:00 +30°C° 0 mm 5 mps 758 mmHg 61%
    11:00 +30°C° 0 mm 5 mps 758 mmHg 60%
    12:00 +32°C° 0 mm 5 mps 757 mmHg 58%
    13:00 +32°C° 0 mm 5 mps 757 mmHg 57%
    14:00 +32°C° 0 mm 5 mps 756 mmHg 58%
    15:00 +30°C° 0 mm 5 mps 756 mmHg 59%
    16:00 +30°C° 0 mm 5 mps 756 mmHg 61%
    17:00 +29°C° 0 mm 5 mps 756 mmHg 65%
    18:00 +28°C° 0 mm 5 mps 756 mmHg 69%
    19:00 +27°C° 0 mm 5 mps 756 mmHg 74%
    20:00 +27°C° 0 mm 5 mps 757 mmHg 75%
    21:00 +27°C° 0 mm 5 mps 757 mmHg 76%
    22:00 +26°C° 0 mm 5 mps 758 mmHg 77%
    23:00 +26°C° 0 mm 4 mps 757 mmHg 78%

    21 November, Thursday

    Time Temperature Precipitation Wind Pressure Humidity
    00:00 +26°C° 0 mm 4 mps 757 mmHg 79%
    01:00 +26°C° 0 mm 4 mps 757 mmHg 80%
    02:00 +26°C° 0.1 mm 4 mps 757 mmHg 80%
    03:00 +26°C° 0.1 mm 4 mps 756 mmHg 80%
    04:00 +26°C° 0.1 mm 4 mps 756 mmHg 80%
    05:00 +26°C° 0 mm 4 mps 757 mmHg 78%
    06:00 +26°C° 0 mm 4 mps 757 mmHg 77%
    07:00 +27°C° 0 mm 3 mps 757 mmHg 75%
    08:00 +28°C° 0 mm 4 mps 757 mmHg 69%
    09:00 +29°C° 0 mm 4 mps 758 mmHg 63%
    10:00 +30°C° 0 mm 5 mps 758 mmHg 58%
    11:00 +32°C° 0 mm 5 mps 758 mmHg 56%
    12:00 +32°C° 0 mm 5 mps 757 mmHg 54%
    13:00 +32°C° 0 mm 4 mps 757 mmHg 53%
    14:00 +32°C° 0 mm 4 mps 756 mmHg 54%
    15:00 +32°C° 0 mm 4 mps 756 mmHg 55%
    16:00 +30°C° 0 mm 4 mps 756 mmHg 56%
    17:00 +29°C° 0 mm 4 mps 756 mmHg 61%
    18:00 +28°C° 0 mm 4 mps 756 mmHg 67%
    19:00 +27°C° 0 mm 4 mps 757 mmHg 72%
    20:00 +27°C° 0 mm 4 mps 757 mmHg 74%
    21:00 +27°C° 0 mm 4 mps 758 mmHg 76%
    22:00 +26°C° 0 mm 4 mps 758 mmHg 78%
    23:00 +26°C° 0 mm 4 mps 758 mmHg 78%
    Show more